Flag for Netherlands Weather past 2 weeks in Apeldoorn, Netherlands

Now
68 °F

Scattered clouds.


Feels Like: 68 °F
Forecast: 57 / 64 °F
Wind: 5 mph from Southeast

Location: Deelen

Current Time: Jul 7, 2015 at 8:59:27 AM

Latest Report: Jul 7, 2015 at 7:55 AM


Visibility: N/A

Pressure: 29.89 "Hg

Humidity: 64%

Dew point: 55 °F

Location of ApeldoornLocation

Historic Weather in Apeldoorn — Graph

°F

Apeldoorn temperature yesterday

Maximum temperature yesterday: 75 °F (at 4:25 PM)
Minimum temperature yesterday: 55 °F (at 5:55 AM)
Average temperature yesterday: 66 °F

Past Weeks' High & Low Weather Summary

 TemperatureHumidityPressure
High97 °F (Jul 2, 3:25 PM)100% (Jun 22, 8:25 AM)30.24 "Hg (Jun 22, 8:25 AM)
Low45 °F (Jun 23, 2:55 AM)26% (Jul 1, 4:25 PM)29.68 "Hg (Jun 22, 5:55 PM)
Average67 °F71%30.06 "Hg
* Reported Jun 22 7:25 AM — Jul 7 7:55 AM, Apeldoorn, Weather by CustomWeather, © 2015

Note: Actual official high and low records may vary slightly from our data, if they occured in-between our weather recording intervals... More about our weather records

Advertising

Apeldoorn weather history for previous 24 hours

 ConditionsComfort  
Time TempWeatherWind HumidityBarometerVisibility
7:55 AM
Tue, Jul 7
68 °FScattered clouds.5 mph64%29.89 "HgN/A
7:25 AM66 °FMild.3 mph68%29.89 "HgN/A
6:55 AM63 °FPassing clouds.5 mph73%29.89 "HgN/A
6:25 AM61 °FPassing clouds.5 mph72%29.92 "HgN/A
5:55 AM59 °FCool.5 mph77%29.92 "HgN/A
5:25 AM59 °FPassing clouds.6 mph77%29.95 "HgN/A
4:55 AM59 °FPassing clouds.6 mph77%29.95 "HgN/A
4:25 AM59 °FCool.6 mph77%29.95 "HgN/A
3:55 AM59 °FCool.3 mph77%29.98 "HgN/A
3:25 AM59 °FCool.2 mph77%29.98 "HgN/A
2:55 AM61 °FCool.2 mph72%29.98 "HgN/A
2:25 AM61 °FCool.3 mph72%30.01 "HgN/A
1:55 AM59 °FCool.2 mph82%30.01 "HgN/A
1:25 AM59 °FCool.5 mph82%30.01 "HgN/A
12:55 AM59 °FCool.2 mph82%30.04 "HgN/A
12:25 AM59 °FCool.2 mph82%30.04 "HgN/A
11:55 PM
Mon, Jul 6
59 °FCool.2 mph82%30.04 "HgN/A
10:55 PM61 °FCool.2 mph83%30.04 "HgN/A
10:25 PM63 °FMild.No wind77%30.04 "HgN/A
9:55 PM64 °FPassing clouds.2 mph73%30.07 "HgN/A
9:25 PM68 °FMild.1 mph64%30.07 "HgN/A
8:55 PM73 °FMild.2 mph47%30.07 "HgN/A
8:25 PM73 °FMild.3 mph47%30.07 "HgN/A
7:55 PM73 °FPassing clouds.3 mph47%30.07 "HgN/A
7:25 PM73 °FPassing clouds.6 mph50%30.07 "HgN/A
6:55 PM73 °FMild.6 mph47%30.09 "HgN/A
6:25 PM73 °FScattered clouds.5 mph47%30.09 "HgN/A
5:55 PM72 °FScattered clouds.7 mph53%30.09 "HgN/A
5:25 PM73 °FScattered clouds.10 mph47%30.12 "HgN/A
4:55 PM73 °FPassing clouds.9 mph44%30.12 "HgN/A
4:25 PM75 °FPassing clouds.12 mph41%30.12 "HgN/A
4:00 PM73 °FPassing clouds.14 mph44%30.12 "HgN/A
3:55 PM73 °FPassing clouds.15 mph41%30.12 "HgN/A
3:25 PM73 °FPassing clouds.12 mph44%30.12 "HgN/A
2:55 PM73 °FScattered clouds.12 mph44%30.12 "HgN/A
2:25 PM73 °FPassing clouds.13 mph53%30.12 "HgN/A
1:55 PM72 °FPassing clouds.12 mph53%30.12 "HgN/A
1:25 PM72 °FScattered clouds.13 mph53%30.15 "HgN/A
1:03 PM70 °FPartly sunny.10 mph57%30.15 "HgN/A
12:55 PM70 °FBroken clouds.16 mph57%30.15 "HgN/A
12:25 PM70 °FBroken clouds.13 mph60%30.15 "HgN/A
11:55 AM68 °FPassing clouds.14 mph64%30.15 "HgN/A
11:25 AM68 °FScattered clouds.14 mph69%30.15 "HgN/A
10:55 AM66 °FScattered clouds.12 mph73%30.15 "HgN/A
10:25 AM66 °FBroken clouds.12 mph68%30.15 "HgN/A
9:55 AM64 °FScattered clouds.9 mph73%30.15 "HgN/A
9:25 AM64 °FScattered clouds.8 mph78%30.12 "HgN/A
8:55 AM63 °FBroken clouds.8 mph83%30.12 "HgN/A
8:25 AM63 °FPassing clouds.8 mph83%30.12 "HgN/A
Weather by CustomWeather, © 2015

See weather overviewHow to use our weather pages